ETD14X OEJN-OMAA

Flight info

Callsign ETD14X
Flight time N/A
Altitude 39000
Route EGREP T532 KODIS Y214 RAPMA DCT KUVSO DCT RIBOT M550 GOLGU M318 ATUDO
Aircraft A35K/H-SDE2E3GHIJ3J4J5LM1ORWXY/LB1D1

Departure

Time 2026-05-06 09:33
Airport King Abdulaziz International Airport (OEJN)

Arrival

Time N/A
Airport Zayed International Airport (OMAA)
Time Latitude Longitude Altitude Speed Heading
2026-05-06 09:15 21.66638 39.17051 40 ft 0 kts 70°
2026-05-06 09:26 21.66634 39.17039 40 ft 2 kts 70°
2026-05-06 09:26 21.66628 39.17022 38 ft 2 kts 70°
2026-05-06 09:26 21.66623 39.17006 37 ft 2 kts 70°
2026-05-06 09:26 21.66616 39.16989 37 ft 3 kts 63°
2026-05-06 09:27 21.66609 39.16972 37 ft 3 kts 85°
2026-05-06 09:27 21.66611 39.16952 37 ft 3 kts 119°
2026-05-06 09:27 21.66622 39.16937 38 ft 3 kts 152°
2026-05-06 09:27 21.66626 39.16934 37 ft 0 kts 161°
2026-05-06 09:29 21.66624 39.16935 38 ft 1 kts 161°
2026-05-06 09:29 21.66612 39.16941 36 ft 3 kts 154°
2026-05-06 09:29 21.66582 39.16958 41 ft 6 kts 153°
2026-05-06 09:29 21.66533 39.16982 41 ft 9 kts 156°
2026-05-06 09:30 21.66463 39.17010 41 ft 12 kts 164°
2026-05-06 09:30 21.66388 39.17015 42 ft 14 kts 183°
2026-05-06 09:30 21.66352 39.17006 42 ft 14 kts 200°
2026-05-06 09:30 21.66295 39.16943 42 ft 13 kts 243°
2026-05-06 09:31 21.66259 39.16849 42 ft 15 kts 248°
2026-05-06 09:31 21.66217 39.16739 42 ft 17 kts 250°
2026-05-06 09:31 21.66176 39.16612 41 ft 19 kts 251°
2026-05-06 09:31 21.66185 39.16476 39 ft 19 kts 310°
2026-05-06 09:32 21.66300 39.16411 40 ft 19 kts 338°
2026-05-06 09:32 21.66416 39.16364 40 ft 1 kts 340°
2026-05-06 09:32 21.66417 39.16364 40 ft 1 kts 340°
2026-05-06 09:33 21.66560 39.16309 41 ft 64 kts 340°
2026-05-06 09:33 21.67288 39.16025 37 ft 156 kts 340°
2026-05-06 09:33 21.68470 39.15582 563 ft 190 kts 338°
2026-05-06 09:33 21.69685 39.15098 1612 ft 179 kts 338°
2026-05-06 09:34 21.70862 39.14628 2080 ft 188 kts 340°
2026-05-06 09:34 21.72175 39.14105 2201 ft 214 kts 341°
2026-05-06 09:34 21.73134 39.13725 2350 ft 230 kts 340°
2026-05-06 09:34 21.75276 39.12882 2759 ft 255 kts 341°
2026-05-06 09:35 21.76379 39.12447 3219 ft 256 kts 341°
2026-05-06 09:35 21.78065 39.11784 3783 ft 263 kts 340°
2026-05-06 09:35 21.80404 39.10857 4551 ft 271 kts 340°
2026-05-06 09:35 21.81589 39.10388 4892 ft 276 kts 340°
2026-05-06 09:36 21.83406 39.09669 5436 ft 281 kts 340°
2026-05-06 09:36 21.85255 39.08938 6004 ft 285 kts 340°
2026-05-06 09:36 21.87129 39.08197 6594 ft 288 kts 339°
2026-05-06 09:36 21.89026 39.07447 7086 ft 294 kts 339°
2026-05-06 09:37 21.91023 39.06933 7608 ft 298 kts 354°
2026-05-06 09:37 21.93108 39.07136 8032 ft 305 kts 19°
2026-05-06 09:37 21.94881 39.08298 8616 ft 303 kts 47°
2026-05-06 09:37 21.96226 39.10044 9190 ft 305 kts 56°
2026-05-06 09:38 21.97496 39.11907 9702 ft 311 kts 56°
2026-05-06 09:38 21.98776 39.13794 10253 ft 314 kts 56°
2026-05-06 09:38 22.00099 39.15732 10511 ft 329 kts 56°
2026-05-06 09:38 22.01486 39.17758 10713 ft 344 kts 56°
2026-05-06 09:39 22.02940 39.19876 10947 ft 358 kts 56°
2026-05-06 09:39 22.04446 39.22065 11140 ft 371 kts 56°
2026-05-06 09:39 22.06006 39.24333 11347 ft 382 kts 55°
2026-05-06 09:39 22.07616 39.26670 11584 ft 393 kts 55°
2026-05-06 09:40 22.09254 39.29052 11908 ft 398 kts 55°
2026-05-06 09:40 22.10910 39.31459 12330 ft 401 kts 55°
2026-05-06 09:40 22.14269 39.36347 13089 ft 408 kts 55°
2026-05-06 09:41 22.15965 39.38817 13535 ft 410 kts 55°
2026-05-06 09:41 22.17664 39.41293 13925 ft 413 kts 55°
2026-05-06 09:41 22.19363 39.43771 14284 ft 416 kts 55°
2026-05-06 09:41 22.21096 39.46299 14686 ft 419 kts 55°
2026-05-06 09:42 22.22836 39.48839 15062 ft 422 kts 55°
2026-05-06 09:42 22.24582 39.51389 15470 ft 424 kts 55°
2026-05-06 09:42 22.26341 39.53958 15865 ft 427 kts 55°
2026-05-06 09:42 22.28116 39.56552 16268 ft 429 kts 55°
2026-05-06 09:43 22.29896 39.59156 16674 ft 432 kts 55°
2026-05-06 09:43 22.31668 39.61748 17072 ft 435 kts 55°
2026-05-06 09:43 22.33474 39.64392 17456 ft 438 kts 56°
2026-05-06 09:43 22.35290 39.67050 17851 ft 442 kts 56°
2026-05-06 09:44 22.37121 39.69733 18238 ft 445 kts 56°
2026-05-06 09:44 22.38962 39.72432 18586 ft 447 kts 56°
2026-05-06 09:44 22.40819 39.75155 18923 ft 450 kts 55°
2026-05-06 09:44 22.42658 39.77853 19269 ft 452 kts 55°
2026-05-06 09:45 22.44552 39.80634 19587 ft 455 kts 55°
2026-05-06 09:45 22.46499 39.83298 19894 ft 459 kts 49°
2026-05-06 09:45 22.48739 39.85771 20228 ft 462 kts 44°
2026-05-06 09:45 22.51113 39.88129 20533 ft 464 kts 41°
2026-05-06 09:46 22.53555 39.90432 20854 ft 467 kts 40°
2026-05-06 09:46 22.56026 39.92724 21160 ft 469 kts 40°
2026-05-06 09:46 22.58514 39.95035 21481 ft 471 kts 40°
2026-05-06 09:46 22.61007 39.97371 21779 ft 474 kts 40°
2026-05-06 09:47 22.63495 39.99724 22098 ft 475 kts 40°
2026-05-06 09:47 22.65983 40.02092 22391 ft 478 kts 40°
2026-05-06 09:47 22.68451 40.04452 22714 ft 480 kts 40°
2026-05-06 09:47 22.70951 40.06847 23023 ft 482 kts 40°
2026-05-06 09:48 22.73468 40.09261 23287 ft 484 kts 40°
2026-05-06 09:48 22.75996 40.11686 23566 ft 486 kts 40°
2026-05-06 09:48 22.78532 40.14119 23814 ft 488 kts 40°
2026-05-06 09:48 22.81079 40.16564 24022 ft 491 kts 40°
2026-05-06 09:49 22.83648 40.19030 24236 ft 493 kts 40°
2026-05-06 09:49 22.86223 40.21504 24440 ft 495 kts 40°
2026-05-06 09:49 22.88807 40.23986 24645 ft 497 kts 40°
2026-05-06 09:49 22.91402 40.26481 24850 ft 500 kts 40°
2026-05-06 09:50 22.93971 40.28952 25057 ft 501 kts 40°
2026-05-06 09:50 22.96624 40.31505 25249 ft 504 kts 40°
2026-05-06 09:50 22.99247 40.34031 25442 ft 506 kts 40°
2026-05-06 09:50 23.01855 40.36544 25663 ft 508 kts 40°
2026-05-06 09:51 23.04492 40.39086 25852 ft 510 kts 40°
2026-05-06 09:51 23.07156 40.41656 26054 ft 512 kts 40°
2026-05-06 09:51 23.09824 40.44231 26281 ft 514 kts 40°
2026-05-06 09:51 23.12506 40.46819 26457 ft 516 kts 40°
2026-05-06 09:52 23.15195 40.49417 26669 ft 518 kts 40°
2026-05-06 09:52 23.17888 40.52021 26892 ft 520 kts 40°
2026-05-06 09:52 23.20604 40.54649 27076 ft 523 kts 40°
2026-05-06 09:52 23.23319 40.57285 27294 ft 525 kts 41°
2026-05-06 09:53 23.25857 40.60160 27470 ft 528 kts 50°
2026-05-06 09:53 23.27992 40.63421 27697 ft 531 kts 59°
2026-05-06 09:53 23.29645 40.67019 27842 ft 533 kts 67°
2026-05-06 09:53 23.31065 40.70749 28049 ft 535 kts 70°
2026-05-06 09:54 23.32401 40.74543 28265 ft 537 kts 71°
2026-05-06 09:54 23.33688 40.78329 28458 ft 539 kts 71°
2026-05-06 09:54 23.34982 40.82168 28667 ft 542 kts 71°
2026-05-06 09:54 23.36303 40.86070 28867 ft 544 kts 71°
2026-05-06 09:55 23.37606 40.89887 29060 ft 546 kts 71°
2026-05-06 09:55 23.38939 40.93766 29256 ft 548 kts 71°
2026-05-06 09:55 23.40281 40.97658 29495 ft 549 kts 71°
2026-05-06 09:55 23.41633 41.01567 29645 ft 552 kts 71°
2026-05-06 09:56 23.42986 41.05483 29829 ft 555 kts 71°
2026-05-06 09:56 23.44347 41.09420 30017 ft 557 kts 71°
2026-05-06 09:56 23.45718 41.13396 30179 ft 559 kts 71°
2026-05-06 09:56 23.47088 41.17369 30373 ft 560 kts 71°
2026-05-06 09:57 23.48455 41.21340 30546 ft 562 kts 71°
2026-05-06 09:57 23.49831 41.25342 30695 ft 564 kts 71°
2026-05-06 09:57 23.51192 41.29306 30867 ft 566 kts 71°
2026-05-06 09:57 23.52575 41.33340 31023 ft 568 kts 71°
2026-05-06 09:58 23.53962 41.37388 31212 ft 569 kts 71°
2026-05-06 09:58 23.55344 41.41423 31444 ft 570 kts 71°
2026-05-06 09:58 23.56731 41.45477 31597 ft 571 kts 71°
2026-05-06 09:58 23.58121 41.49542 31839 ft 571 kts 71°
2026-05-06 09:59 23.59510 41.53610 32056 ft 572 kts 71°
2026-05-06 09:59 23.60883 41.57636 32268 ft 572 kts 71°
2026-05-06 09:59 23.62273 41.61714 32538 ft 571 kts 71°
2026-05-06 09:59 23.63655 41.65774 32779 ft 571 kts 71°
2026-05-06 10:00 23.65040 41.69846 33006 ft 572 kts 71°
2026-05-06 10:00 23.66409 41.73873 33207 ft 574 kts 71°
2026-05-06 10:00 23.67793 41.77961 33384 ft 575 kts 72°
2026-05-06 10:00 23.69138 41.82078 33666 ft 574 kts 72°
2026-05-06 10:01 23.70441 41.86189 33943 ft 574 kts 73°
2026-05-06 10:01 23.71736 41.90320 34183 ft 575 kts 73°
2026-05-06 10:01 23.73029 41.94449 34423 ft 574 kts 73°
2026-05-06 10:01 23.74324 41.98570 34694 ft 574 kts 73°
2026-05-06 10:02 23.75644 42.02678 34967 ft 573 kts 71°
2026-05-06 10:02 23.77022 42.06760 35252 ft 573 kts 71°
2026-05-06 10:02 23.78428 42.10825 35522 ft 572 kts 70°
2026-05-06 10:02 23.79843 42.14890 35784 ft 572 kts 70°
2026-05-06 10:03 23.81249 42.18944 36040 ft 572 kts 71°
2026-05-06 10:03 23.82651 42.23012 36317 ft 570 kts 71°
2026-05-06 10:03 23.84038 42.27062 36658 ft 568 kts 71°
2026-05-06 10:03 23.85401 42.31060 36920 ft 568 kts 71°
2026-05-06 10:04 23.86774 42.35101 37174 ft 568 kts 71°
2026-05-06 10:04 23.88146 42.39148 37432 ft 567 kts 71°
2026-05-06 10:04 23.89512 42.43181 37711 ft 567 kts 71°
2026-05-06 10:04 23.90884 42.47234 37929 ft 567 kts 71°
2026-05-06 10:05 23.92253 42.51279 38150 ft 567 kts 71°